Other Public Products
Issued by NWS Grand Forks, ND

Home | Current Version | Previous Version | Graphics & Text | Print | Product List | Glossary On
Versions: 1 2 3 4 5 6 7 8 9 10 11 12 13 14 15 16 17 18 19 20 21 22 23 24 25 26 27 28 29 30 31 32 33 34 35 36 37 38 39 40 41 42 43 44 45 46 47 48 49 50
000
FPUS83 KFGF 252310
OPUFGF
PRAIRIE TO PINES WEATHER ROUNDUP
NATIONAL WEATHER SERVICE EASTERN NORTH DAKOTA/GRAND FORKS ND
600 PM CDT FRI JUL 25 2014

 **SATELLITE DATA USED TO AUGMENT SKY COVER AT AUTOMATED STATIONS**
 *****  WEATHER ACROSS EASTERN NORTH DAKOTA  *****

CITY           SKY/WX    TMP DP  RH WIND       PRES   REMARKS
GRAND FORKS    MOSUNNY   80  55  42 NW10      29.72F
GRAND FORKS AF SUNNY     80  55  43 W12       29.74F
GRAND CITY NWS   N/A     79 N/A N/A NW6         N/A
BUXTON         NOT AVBL
DEVILS LAKE    SUNNY     77  52  41 W16G22    29.76S
FARGO          MOSUNNY   82  68  62 W9        29.74F
WAHPETON ARPT  CLOUDY    77  64  65 NW5       29.76F
$$

 *****  WEATHER ACROSS CENTRAL AND WESTERN NORTH DAKOTA  *****

CITY           SKY/WX    TMP DP  RH WIND       PRES   REMARKS
JAMESTOWN      SUNNY     79  51  37 NW12      29.79S
BISMARCK       SUNNY     83  47  28 MISG      29.81F
MINOT          SUNNY     79  47  32 SW8       29.77S
MINOT AFB      SUNNY     78  53  42 W6        29.76F
GARRISON         N/A     77  52  41 S3        29.79F
WILLISTON      SUNNY     84  38  19 W14G26    29.75S
DICKINSON      SUNNY     83  45  26 MISG      29.80F
HETTINGER      SUNNY     81  46  29 S8        29.86S
$$

 *****  OTHER OBSERVATIONS NORTHEAST NORTH DAKOTA  *****

CITY           SKY/WX    TMP DP  RH WIND       PRES   REMARKS
WALHALLA       FAIR      77  55  47 W10         N/A
LANGDON        FAIR      75  50  41 W16G22    29.76S
CAVALIER       FAIR      79  54  41 W10G18    29.72S
GRAFTON        FAIR      79  54  41 NW13      29.72S
CANDO          FAIR      75  52  43 W15       29.78R
FORT TOTTEN      N/A     79  54  41 NW6       29.95
ROLLA          FAIR      73  50  43 W16G24    29.78S
RUGBY          FAIR      73  55  53 W9        29.78S
 ***** THE ABOVE OBSERVATIONS ARE NON NWS ARE NOT QUALITY
        CONTROLLED AND MAY MIS-REPORT RAIN FOR SNOW...
$$

 *****  OTHER OBSERVATIONS SOUTHEAST NORTH DAKOTA *****

CITY           SKY/WX    TMP DP  RH WIND       PRES   REMARKS
COOPERSTOWN    NOT AVBL
VALLEY CITY    FAIR      81  54  39 NW9       29.79S
OAKES          NOT AVBL
GWINNER        CLEAR     82  64  54 NW10      29.79S
BUFFALO        NOT AVBL
WYNDMERE       NOT AVBL
 ***** THE ABOVE OBSERVATIONS ARE NON NWS ARE NOT QUALITY
       CONTROLLED AND MAY MIS-REPORT RAIN FOR SNOW...
$$

  *****  WEATHER ACROSS NORTHERN MINNESOTA  *****

CITY           SKY/WX    TMP DP  RH WIND       PRES   REMARKS
FLAG ISLAND    MOSUNNY   72  64  78 S9        29.69S
WARROAD        MOSUNNY   79  70  73 S8        29.69F
ROSEAU         MOSUNNY   79  68  69 W14G21    29.70S
HALLOCK        SUNNY     81  52  36 W13G20    29.70S
THF RVR FALLS  PTSUNNY   77  64  65 W13       29.73S
HALSTAD          N/A     80  57  45 NW9         N/A
FOSSTON        PTSUNNY   75  66  73 SW9       29.75F
BAUDETTE       PTSUNNY   76  66  71 S8        29.72F
WASKISH        PTSUNNY   75  66  73 CALM      29.74S
CROOKSTON      SUNNY     79  61  53 NW14      29.73S
$$
  *****  WEATHER ACROSS CENTRAL AND WEST MINNESOTA  *****

CITY           SKY/WX    TMP DP  RH WIND       PRES   REMARKS
BEMIDJI        CLOUDY    75  67  76 SW5       29.75F
PARK RAPIDS    CLOUDY    76  67  73 W7        29.76S
WADENA         CLOUDY    75  66  73 SW5       29.77S
DETROIT LAKES  PTSUNNY   75  68  78 W3        29.78S
MOORHEAD       MOSUNNY   81  72  74 N7        29.75S
FERGUS FALLS   CLOUDY    75  66  73 W5        29.75F
ELBOW LAKE     FAIR      76  68  76 W5        29.77S
MORRIS MN      SUNNY     77  70  78 NW6       29.76F
STAPLES        CLOUDY    75  66  73 SW3       29.77F
WHEATON        MOSUNNY   73  66  78 NW6       29.78F
$$
  *****  WEATHER ELSEWHERE ACROSS MINNESOTA  *****

CITY           SKY/WX    TMP DP  RH WIND       PRES   REMARKS
DULUTH         CLOUDY    69  64  84 SE8       29.80S
INTRNTL FALLS  CLOUDY    73  64  73 SW7       29.74S
ELY            CLOUDY    70  63  78 SW6       29.78S
CLOQUET        CLOUDY    70  63  78 SE8       29.79S
BRAINERD       CLOUDY    74  67  78 S6        29.77F
HIBBING        CLOUDY    75  65  70 SE7       29.78S
ALEXANDRIA     CLOUDY    76  67  73 CALM      29.79S
SAINT CLOUD    CLOUDY    80  69  69 SW5       29.77S
MINNEAPOLIS    CLOUDY    80  68  66 S6        29.78S
$$

  *****  WEATHER ACROSS SOUTH DAKOTA  *****

CITY           SKY/WX    TMP DP  RH WIND       PRES   REMARKS
SIOUX FALLS    MOSUNNY   86  71  60 N3        29.77F HX  91
BROOKINGS      NOT AVBL
WATERTOWN      MOSUNNY   77  67  71 N9        29.79F
HURON          CLOUDY    79  68  69 N12       29.78F
SISSETON         N/A     76  69  79 N6        29.76F
ABERDEEN       SUNNY     81  60  48 N16       29.79R
MITCHELL       MOSUNNY   82  70  66 N9        29.79R
PIERRE         SUNNY     88  46  23 N12       29.80S
MOBRIDGE       SUNNY     84  49  29 NE8       29.80F
RAPID CITY     LGT RAIN  80  53  39 SE13      29.88F
$$

  *****  SOME WEATHER IN NEARBY STATES *****

CITY           SKY/WX    TMP DP  RH WIND       PRES   REMARKS
GLASGOW MT     SUNNY     84  33  16 W24G35    29.74S
GREAT FALLS MT SUNNY     79  32  18 W28G37    29.90R
CHEYENNE WY    PTSUNNY   84  48  28 S22G32    30.07F
SCOTTSBLUFF NE MOSUNNY   88  55  32 E13       29.92F
OMAHA NE       PTSUNNY   92  76  59 E5        29.72F HX 104
DES MOINES IA  MOSUNNY   82  70  66 SE8       29.79S
DAVENPORT IA   CLOUDY    73  64  73 S6        29.89S
CHICAGO IL     PTSUNNY   73  57  57 SW8       29.93F
EAU CLAIRE WI  CLOUDY    75  67  76 SE7       29.82S
LA CROSSE WI   PTSUNNY   78  64  61 S12       29.83F
$$

  *****  SOME NATIONAL WEATHER *****

CITY           SKY/WX    TMP DP  RH WIND       PRES   REMARKS
LA GUARDIA NY  MOSUNNY   79  58  48 S10       29.96S
RALEIGH NC     MOSUNNY   80  66  62 S6        30.02S
ATLANTA GA     MOSUNNY   87  65  47 N8        30.00S
NEW ORLEANS LA PTSUNNY   84  75  74 S7        29.98F HX  92
OKLAHOMA CITY  MOSUNNY   98  64  32 S15G21    29.87F HX 100
ALBUQUERQUE NM MOSUNNY   96  40  14 W9        30.08F HX  92
SALT LAKE CITY MOSUNNY   91  39  16 N14G23    29.96F
LOS ANGELES CA PTSUNNY   75  64  68 W9        29.89F
BOISE ID       SUNNY     84  30  14 NW9       30.01F
SEATTLE WA     MOSUNNY   73  51  46 NW12      30.13F
$$

*** WEATHER ACROSS MANITOBA...SASKATCHEWAN AND ONTARIO ***
                ***ONTARIO***

CITY           SKY/WX    TMP DP  RH WIND       PRES   REMARKS
GERALDTON      PTSUNNY   77  50  38 W7        29.72F
THUNDER BAY    PTSUNNY   66  64  94 NE7       29.76R
SIOUX LOOKOUT  PTSUNNY   77  61  57 SW7       29.72F
TORONTO        PTSUNNY   75  52  43 W10G17    29.94F
BIG TROUT LK   SUNNY     64  50  59 NE9G17    29.76R
PICKLE LAKE    PTSUNNY   77  50  38 VRB2      29.69F
DRYDEN         CLOUDY    72  63  73 S8        29.73S
KENORA         NOT AVBL
$$
                *** MANITOBA***

CITY           SKY/WX    TMP DP  RH WIND       PRES   REMARKS
BRANDON        MOSUNNY   75  52  43 W18       29.72R
DAUPHIN        SUNNY     77  52  41 W13       29.66S
ISLAND LAKE    PTSUNNY   75  52  43 E9        29.71F
PILOT MOUND      N/A     75  50  41 W10G18      N/A
THE PAS        LGT RAIN  68  63  83 SE9       29.63S
THOMPSON       MOSUNNY   75  52  43 S15       29.75S
WINNIPEG       MOSUNNY   81  52  36 W14       29.68S
LYNN LAKE      SUNNY     75  45  33 E14G23    29.76S
CHURCHILL      CLOUDY    48  45  87 NE13      29.97R
GILLAM         PTSUNNY   63  52  67 NE12      29.83R
$$
                ***SASKATCHEWAN***

CITY           SKY/WX    TMP DP  RH WIND       PRES   REMARKS
ESTEVAN        MOSUNNY   77  50  38 SW13      29.74F
KINDERSLEY     PTSUNNY   59  52  77 NW22G32   29.56R
LLOYDMINSTER   LGT RAIN  61  54  77 N10G18    29.64R
PRINCE ALBERT  LGT RAIN  61  54  77 SE9       29.57F
REGINA         LGT RAIN  64  54  68 NW20G28   29.68R
YORKTON        MOSUNNY   75  48  38 SW13G20   29.67F


USA.gov is the U.S. government's official web portal to all federal, state and local government web resources and services.